• în România
  • Lista ţărilor
  • Pe 7 zile
  • Temperatura apei
  • Hartă satelitară
  • Meteo pe hartă
  • Widget-uri
  • user-avatar
    Intrare

    Meteo pe oră la Rassekino

    Astăzi, 23 Septembrie, Duminică

    Timp Temperatura Precipitaţii Vânt Presiune Umiditate
    00:00 +19°C° 0 mm 6 m/s 744 mmHg 56%
    01:00 +19°C° 0 mm 6 m/s 744 mmHg 56%
    02:00 +19°C° 0 mm 6 m/s 743 mmHg 57%
    03:00 +17°C° 0 mm 6 m/s 743 mmHg 58%
    04:00 +17°C° 0 mm 6 m/s 743 mmHg 59%
    05:00 +17°C° 0 mm 6 m/s 742 mmHg 60%
    06:00 +16°C° 0 mm 6 m/s 742 mmHg 62%
    07:00 +16°C° 0.1 mm 6 m/s 742 mmHg 64%
    08:00 +16°C° 0.1 mm 6 m/s 741 mmHg 65%
    09:00 +17°C° 0.1 mm 7 m/s 741 mmHg 67%
    10:00 +15°C° 0.6 mm 6 m/s 742 mmHg 72%
    11:00 +13°C° 0.6 mm 6 m/s 742 mmHg 77%
    12:00 +10°C° 0.6 mm 6 m/s 743 mmHg 82%
    13:00 +10°C° 0.4 mm 6 m/s 743 mmHg 81%
    14:00 +10°C° 0.4 mm 5 m/s 744 mmHg 80%
    15:00 +11°C° 0.4 mm 4 m/s 744 mmHg 79%
    16:00 +12°C° 0 mm 4 m/s 744 mmHg 79%
    17:00 +12°C° 0 mm 3 m/s 744 mmHg 79%
    18:00 +13°C° 0 mm 2 m/s 744 mmHg 79%
    19:00 +11°C° 0 mm 3 m/s 744 mmHg 81%
    20:00 +10°C° 0 mm 3 m/s 744 mmHg 83%
    21:00 +10°C° 0 mm 3 m/s 744 mmHg 86%
    22:00 +10°C° 0 mm 3 m/s 744 mmHg 86%
    23:00 +9°C° 0 mm 3 m/s 744 mmHg 87%

    Mâine, 24 Septembrie, Luni

    Timp Temperatura Precipitaţii Vânt Presiune Umiditate
    00:00 +9°C° 0 mm 3 m/s 744 mmHg 88%
    01:00 +9°C° 0 mm 3 m/s 745 mmHg 89%
    02:00 +8°C° 0 mm 3 m/s 745 mmHg 90%
    03:00 +8°C° 0 mm 3 m/s 745 mmHg 91%
    04:00 +8°C° 0 mm 3 m/s 745 mmHg 91%
    05:00 +8°C° 0 mm 3 m/s 745 mmHg 91%
    06:00 +8°C° 0 mm 3 m/s 745 mmHg 91%
    07:00 +9°C° 0 mm 3 m/s 745 mmHg 86%
    08:00 +10°C° 0 mm 3 m/s 744 mmHg 80%
    09:00 +11°C° 0 mm 4 m/s 744 mmHg 75%
    10:00 +12°C° 0 mm 4 m/s 744 mmHg 70%
    11:00 +13°C° 0 mm 5 m/s 744 mmHg 65%
    12:00 +14°C° 0 mm 6 m/s 743 mmHg 59%
    13:00 +13°C° 0.5 mm 6 m/s 743 mmHg 64%
    14:00 +11°C° 0.5 mm 6 m/s 742 mmHg 69%
    15:00 +11°C° 0.5 mm 7 m/s 741 mmHg 74%
    16:00 +10°C° 1.1 mm 8 m/s 740 mmHg 77%
    17:00 +10°C° 1.1 mm 9 m/s 739 mmHg 80%
    18:00 +9°C° 1.1 mm 10 m/s 738 mmHg 83%
    19:00 +9°C° 1.7 mm 10 m/s 736 mmHg 84%
    20:00 +11°C° 1.7 mm 11 m/s 735 mmHg 85%
    21:00 +11°C° 1.7 mm 11 m/s 734 mmHg 86%
    22:00 +11°C° 0.3 mm 11 m/s 733 mmHg 85%
    23:00 +11°C° 0.3 mm 11 m/s 732 mmHg 84%

    Poimâine, 25 Septembrie, Marţi

    Timp Temperatura Precipitaţii Vânt Presiune Umiditate
    00:00 +11°C° 0.3 mm 10 m/s 732 mmHg 83%
    01:00 +9°C° 0 mm 10 m/s 732 mmHg 82%
    02:00 +8°C° 0 mm 9 m/s 732 mmHg 80%
    03:00 +7°C° 0 mm 9 m/s 733 mmHg 79%
    04:00 +7°C° 0 mm 9 m/s 733 mmHg 80%
    05:00 +7°C° 0 mm 8 m/s 733 mmHg 81%
    06:00 +7°C° 0 mm 8 m/s 734 mmHg 82%
    07:00 +7°C° 0 mm 8 m/s 734 mmHg 80%
    08:00 +7°C° 0 mm 8 m/s 735 mmHg 79%
    09:00 +7°C° 0 mm 9 m/s 735 mmHg 78%
    10:00 +7°C° 0 mm 9 m/s 736 mmHg 77%
    11:00 +7°C° 0 mm 9 m/s 737 mmHg 75%
    12:00 +7°C° 0 mm 9 m/s 737 mmHg 74%
    13:00 +7°C° 0 mm 9 m/s 738 mmHg 73%
    14:00 +7°C° 0 mm 9 m/s 739 mmHg 73%
    15:00 +7°C° 0 mm 9 m/s 739 mmHg 72%
    16:00 +7°C° 0.1 mm 8 m/s 740 mmHg 72%
    17:00 +6°C° 0.1 mm 8 m/s 741 mmHg 72%
    18:00 +6°C° 0.1 mm 8 m/s 741 mmHg 72%
    19:00 +6°C° 0.1 mm 8 m/s 742 mmHg 73%
    20:00 +5°C° 0.1 mm 7 m/s 742 mmHg 74%
    21:00 +5°C° 0.1 mm 7 m/s 743 mmHg 75%
    22:00 +5°C° 0.1 mm 7 m/s 743 mmHg 76%
    23:00 +5°C° 0.1 mm 7 m/s 744 mmHg 77%

    26 Septembrie, Miercuri

    Timp Temperatura Precipitaţii Vânt Presiune Umiditate
    00:00 +4°C° 0.1 mm 6 m/s 744 mmHg 77%
    01:00 +4°C° 0 mm 6 m/s 745 mmHg 78%
    02:00 +4°C° 0 mm 6 m/s 746 mmHg 78%
    03:00 +4°C° 0 mm 6 m/s 746 mmHg 78%
    04:00 +3°C° 0 mm 6 m/s 747 mmHg 77%
    05:00 +3°C° 0 mm 6 m/s 748 mmHg 76%
    06:00 +2°C° 0 mm 6 m/s 748 mmHg 75%
    07:00 +2°C° 0 mm 6 m/s 749 mmHg 72%
    08:00 +3°C° 0 mm 6 m/s 750 mmHg 70%
    09:00 +3°C° 0 mm 7 m/s 750 mmHg 67%
    10:00 +4°C° 0 mm 6 m/s 750 mmHg 62%
    11:00 +7°C° 0 mm 6 m/s 751 mmHg 58%
    12:00 +8°C° 0 mm 6 m/s 751 mmHg 53%
    13:00 +8°C° 0 mm 7 m/s 751 mmHg 53%
    14:00 +9°C° 0 mm 7 m/s 751 mmHg 52%
    15:00 +9°C° 0 mm 7 m/s 751 mmHg 51%
    16:00 +9°C° 0 mm 6 m/s 751 mmHg 55%
    17:00 +8°C° 0 mm 5 m/s 751 mmHg 59%
    18:00 +7°C° 0 mm 4 m/s 750 mmHg 62%
    19:00 +7°C° 0 mm 4 m/s 750 mmHg 64%
    20:00 +7°C° 0 mm 5 m/s 750 mmHg 65%
    21:00 +7°C° 0 mm 5 m/s 750 mmHg 66%
    22:00 +7°C° 0 mm 6 m/s 749 mmHg 69%
    23:00 +7°C° 0 mm 6 m/s 749 mmHg 71%

    27 Septembrie, Joi

    Timp Temperatura Precipitaţii Vânt Presiune Umiditate
    00:00 +6°C° 0 mm 7 m/s 748 mmHg 74%
    01:00 +6°C° 0.3 mm 7 m/s 748 mmHg 76%
    02:00 +6°C° 0.3 mm 8 m/s 747 mmHg 79%
    03:00 +6°C° 0.3 mm 8 m/s 746 mmHg 81%
    04:00 +6°C° 0.5 mm 9 m/s 746 mmHg 81%
    05:00 +5°C° 0.5 mm 10 m/s 745 mmHg 80%
    06:00 +5°C° 0.5 mm 10 m/s 744 mmHg 80%
    07:00 +5°C° 0.2 mm 10 m/s 744 mmHg 80%
    08:00 +5°C° 0.2 mm 10 m/s 743 mmHg 80%
    09:00 +5°C° 0.2 mm 10 m/s 743 mmHg 80%
    10:00 +6°C° 0.1 mm 10 m/s 743 mmHg 80%
    11:00 +6°C° 0.1 mm 10 m/s 742 mmHg 80%
    12:00 +7°C° 0.1 mm 9 m/s 742 mmHg 80%
    13:00 +7°C° 0.2 mm 9 m/s 742 mmHg 80%
    14:00 +8°C° 0.2 mm 9 m/s 742 mmHg 81%
    15:00 +8°C° 0.2 mm 9 m/s 741 mmHg 82%
    16:00 +7°C° 0.4 mm 9 m/s 741 mmHg 83%
    17:00 +7°C° 0.4 mm 9 m/s 740 mmHg 84%
    18:00 +7°C° 0.4 mm 9 m/s 740 mmHg 86%
    19:00 +7°C° 0.2 mm 9 m/s 740 mmHg 86%
    20:00 +7°C° 0.2 mm 9 m/s 739 mmHg 86%
    21:00 +9°C° 0.2 mm 8 m/s 739 mmHg 87%
    22:00 +9°C° 0.3 mm 8 m/s 739 mmHg 87%
    23:00 +9°C° 0.3 mm 8 m/s 739 mmHg 88%

    28 Septembrie, Vineri

    Timp Temperatura Precipitaţii Vânt Presiune Umiditate
    00:00 +9°C° 0.3 mm 7 m/s 738 mmHg 88%
    01:00 +9°C° 0.6 mm 7 m/s 738 mmHg 88%
    02:00 +9°C° 0.6 mm 7 m/s 738 mmHg 87%
    03:00 +9°C° 0.6 mm 7 m/s 738 mmHg 87%
    04:00 +9°C° 0.1 mm 7 m/s 739 mmHg 86%
    05:00 +8°C° 0.1 mm 6 m/s 739 mmHg 86%
    06:00 +8°C° 0.1 mm 6 m/s 739 mmHg 85%
    07:00 +8°C° 0 mm 7 m/s 740 mmHg 83%
    08:00 +8°C° 0 mm 7 m/s 740 mmHg 80%
    09:00 +9°C° 0 mm 8 m/s 740 mmHg 77%
    10:00 +9°C° 0 mm 8 m/s 741 mmHg 71%
    11:00 +10°C° 0 mm 8 m/s 741 mmHg 65%
    12:00 +11°C° 0 mm 8 m/s 741 mmHg 60%
    13:00 +11°C° 0 mm 8 m/s 741 mmHg 58%
    14:00 +11°C° 0 mm 7 m/s 741 mmHg 57%
    15:00 +11°C° 0 mm 7 m/s 741 mmHg 56%
    16:00 +11°C° 0 mm 6 m/s 741 mmHg 60%
    17:00 +10°C° 0 mm 5 m/s 741 mmHg 63%
    18:00 +10°C° 0 mm 4 m/s 741 mmHg 67%
    19:00 +8°C° 0 mm 4 m/s 741 mmHg 69%
    20:00 +7°C° 0 mm 4 m/s 742 mmHg 71%
    21:00 +7°C° 0 mm 4 m/s 742 mmHg 72%
    22:00 +6°C° 0 mm 5 m/s 742 mmHg 71%
    23:00 +5°C° 0 mm 5 m/s 743 mmHg 70%
    Arată mai mult